AC8AJ Weather Reports


time (UTC)temp
F
wind
direction
speed
knots
gust
knots
rain 1hr
in
rain 24hr
in
rain mn
in
humidity
%
barometer
mb
20260906110100 71 0 0.0 0.9 0.00 0.00 0.00 94 1012.1
20260906104625 71 0 0.0 0.9 0.00 0.00 0.00 94 1011.8
20260906103055 71 0 0.0 0.0 0.00 0.00 0.00 94 1011.6
20260906101555 71 0 0.0 0.9 0.00 0.00 0.00 94 1011.4
20260906100057 71 155 0.0 1.7 0.00 0.00 0.00 93 1011.3
20260906094555 71 0 0.0 0.0 0.00 0.00 0.00 93 1011.2
20260906093107 70 0 0.0 0.0 0.00 0.00 0.00 93 1010.9
20260906091600 71 0 0.0 0.9 0.00 0.00 0.00 92 1011.2
20260906090058 71 0 0.0 0.9 0.00 0.00 0.00 92 1011.0
20260906084602 71 0 0.0 0.9 0.00 0.00 0.00 91 1011.2
20260906083102 71 0 0.0 0.9 0.00 0.00 0.00 90 1011.2
20260906081556 72 0 0.0 0.9 0.00 0.00 0.00 90 1011.3
20260906080057 72 0 0.0 0.9 0.00 0.00 0.00 89 1011.4
20260906074559 72 0 0.0 1.7 0.00 0.00 0.00 90 1011.3
20260906073058 72 210 0.0 1.7 0.00 0.00 0.00 89 1011.4
20260906071557 72 169 0.0 2.6 0.00 0.00 0.00 89 1011.4
20260906070110 73 207 0.9 3.5 0.00 0.00 0.00 88 1011.4
20260906064601 73 0 0.9 5.2 0.00 0.00 0.00 88 1011.5
20260906063057 73 0 0.0 0.9 0.00 0.00 0.00 87 1011.4
20260906061601 73 0 0.0 0.0 0.00 0.00 0.00 87 1011.3
20260906060105 73 0 0.0 0.0 0.00 0.00 0.00 87 1011.6
20260906054612 73 0 0.0 0.0 0.00 0.00 0.00 86 1011.6
20260906053056 73 0 0.0 0.9 0.00 0.00 0.00 86 1011.8
20260906051600 73 0 0.0 1.7 0.00 0.00 0.00 86 1011.5
20260906050123 73 0 0.0 0.0 0.00 0.00 0.00 87 1011.6
20260906044557 73 0 0.0 0.9 0.00 0.00 0.00 86 1011.3
20260906043102 74 55 0.0 1.7 0.00 0.00 0.00 87 1011.2
20260906041601 74 0 0.0 0.0 0.00 0.00 0.00 86 1011.2
20260906040115 75 0 0.0 0.0 0.00 0.00 0.00 85 1011.3
20260906034553 75 0 0.0 0.0 0.00 0.00 0.00 84 1011.2
20260906033110 75 0 0.0 0.0 0.00 0.00 0.00 82 1011.2
20260906031602 75 0 0.0 0.9 0.00 0.00 0.00 83 1011.4
20260906030056 75 55 0.0 0.9 0.00 0.00 0.00 81 1011.7
20260906024615 76 0 0.0 0.9 0.00 0.00 0.00 80 1011.8
20260906023100 77 0 0.0 0.0 0.00 0.00 0.00 78 1011.8
20260906021603 77 0 0.0 0.0 0.00 0.00 0.00 77 1011.8
20260906020059 77 0 0.0 0.9 0.00 0.00 0.00 77 1011.6
20260906014601 77 0 0.0 0.9 0.00 0.00 0.00 76 1011.5
20260906013056 77 0 0.0 0.9 0.00 0.00 0.00 76 1011.6
20260906011558 77 0 0.0 0.0 0.00 0.00 0.00 75 1011.3
20260906004602 78 0 0.0 0.0 0.00 0.00 0.00 75 1010.9
20260906003058 78 0 0.0 0.9 0.00 0.00 0.00 75 1011.0
20260906001554 78 0 0.0 0.9 0.00 0.00 0.00 75 1011.0
20260906000053 78 0 0.0 0.0 0.00 0.00 0.00 74 1011.0
20260905234612 79 0 0.0 0.0 0.00 0.00 0.00 73 1011.2
20260905233053 79 0 0.0 0.9 0.00 0.00 0.00 73 1011.1
20260905231555 80 0 0.0 0.9 0.00 0.00 0.00 73 1011.3
20260905230128 80 0 0.0 0.0 0.00 0.00 0.00 72 1011.3
20260905224554 81 0 0.0 0.9 0.00 0.00 0.00 71 1011.4
20260905223053 81 0 0.0 1.7 0.00 0.00 0.00 69 1011.3
20260905221557 83 55 0.0 1.7 0.00 0.00 0.00 66 1011.2
20260905220056 85 0 0.0 0.0 0.00 0.00 0.00 64 1011.2
20260905214558 85 0 0.0 0.9 0.00 0.00 0.00 62 1011.1
20260905213053 86 55 0.0 0.9 0.00 0.00 0.00 61 1011.0
20260905211558 88 63 0.0 1.7 0.00 0.00 0.00 60 1010.9
20260905210100 90 40 0.0 2.6 0.00 0.00 0.00 58 1010.8
20260905204556 90 0 0.0 3.5 0.00 0.00 0.00 57 1010.6
20260905203058 90 327 0.0 1.7 0.00 0.00 0.00 59 1010.9
20260905201554 90 0 0.0 2.6 0.00 0.00 0.00 58 1010.8
20260905200108 89 0 0.0 1.7 0.00 0.00 0.00 57 1010.9
20260905194555 90 0 0.0 1.7 0.00 0.00 0.00 56 1010.9
20260905193110 89 0 0.0 1.7 0.00 0.00 0.00 57 1011.3
20260905191554 88 0 0.0 1.7 0.00 0.00 0.00 58 1011.5
20260905190056 87 0 0.0 1.7 0.00 0.00 0.00 57 1011.8
20260905184604 85 0 0.0 0.9 0.00 0.00 0.00 59 1012.1
20260905183059 86 96 0.0 2.6 0.00 0.00 0.00 57 1012.4
20260905181604 86 69 0.0 1.7 0.00 0.00 0.00 61 1012.8
20260905174600 86 317 0.0 1.7 0.00 0.00 0.00 66 1012.5
20260905173101 85 0 0.0 0.9 0.00 0.00 0.00 68 1012.5
20260905171602 85 0 0.0 1.7 0.00 0.00 0.00 68 1012.6
20260905164606 80 0 0.9 2.6 0.00 0.00 0.00 73 1012.4
20260905163102 80 180 0.0 1.7 0.00 0.00 0.00 74 1012.7
20260905161556 79 183 0.0 2.6 0.00 0.00 0.00 76 1012.9
20260905160058 79 0 0.0 2.6 0.00 0.00 0.00 77 1012.7
20260905154607 78 184 1.7 3.5 0.00 0.00 0.00 78 1012.4
20260905153105 77 179 1.7 4.3 0.00 0.00 0.00 80 1012.8
20260905151604 75 189 0.9 5.2 0.00 0.00 0.00 85 1013.4
20260905144609 74 202 2.6 8.7 0.00 0.00 0.00 86 1014.4
20260905143056 73 150 0.0 5.2 0.00 0.00 0.00 87 1013.9
20260905141558 73 0 0.0 1.7 0.00 0.00 0.00 89 1014.1
20260905134552 72 0 0.0 1.7 0.00 0.00 0.00 92 1014.7
20260905133101 71 0 0.0 0.9 0.00 0.00 0.00 91 1014.7
20260905131557 71 0 0.0 1.7 0.00 0.00 0.00 91 1014.5
20260905130105 71 56 0.9 3.5 0.00 0.00 0.00 91 1014.5
20260905124554 72 54 0.9 2.6 0.00 0.00 0.00 89 1014.2
20260905123102 73 63 1.7 4.3 0.00 0.00 0.00 86 1013.5
20260905121601 73 194 1.7 6.1 0.00 0.00 0.00 87 1012.5
20260905120055 73 278 0.9 2.6 0.00 0.00 0.00 88 1012.6
20260905114559 73 214 1.7 5.2 0.00 0.00 0.00 88 1012.2
20260905113104 72 209 0.9 3.5 0.00 0.00 0.00 89 1012.4
20260905111552 72 221 0.9 3.5 0.00 0.00 0.00 89 1012.1